sat.trackr.live / text

‹ back to catalog

JILIN GAOFEN OBJECT D

NORAD 68694 · 2026-080D

PAYLOAD ACTIVE UNKNOWN

§ Identity

Operator
Country
PRC
Launch date
2026-04-14
Launch site
JSC
Launch vehicle
Mass (kg)
RCS (m²)

External: N2YO · Heavens-Above · Gunter

§ Orbital elements

Epoch: 2026-05-25T04:21:45.705600Z

Period
95.44 min
Inclination
97.6659°
Eccentricity
0.0020662
Mean motion
15.08775139 rev/d
Perigee alt
525.6 km
Apogee alt
554.2 km
Semi-major
6,918.1 km
B*
3.0097e-4
RAAN
220.8179°
Arg perigee
132.3444°
Mean anomaly
227.9538°
Rev number
617

§ Raw data

JILIN GAOFEN OBJECT D1 68694U 26080D   26145.18177900  .00004687  00000+0  30097-3 0  99962 68694  97.6659 220.8179 0020662 132.3444 227.9538 15.08775139  6179

JSON: /api/v1/satellites/68694 · /tle

For live sub-satellite position, see the globe view (requires WebGL).

§ Visibility from observer

Set your observer location to see the next 7 days of passes ≥ 10°. The values pass through the URL so the page stays shareable.

No JS? Fill the form by hand. The geolocation button needs JavaScript.